Zurück zum Katalog

STARLINK-3703

AktivKommunikationVLEO
NORAD 52101·PAYLOAD·🇺🇸 United States

Gestartet Mar 19, 2022 von Cape Canaveral Space Force Station

Loading…

Nächste Überflüge (nächste 24 Stunden)

TLE

AktuellSource: CelesTrak SupGP

Epoche: Sep 15, 2026, 01:59 UTC

1 52101C 22029P   26258.08312500  .00075799  00000+0  22378-2 0  2584
2 52101  53.1587 307.3780 0001260  84.6071   6.0110 15.34376458    18

Verfolge STARLINK-3703 in Echtzeit mit AllMySat

Download on the App Store